AXM1054 WMKL-WMKA

Flight info

Callsign AXM1054
Flight time 0h 13m
Altitude 9000
Route MULOT1B MULOT MULOT1E
Aircraft A20N/M-SDE2E3FGHIRWXY/LB1

Departure

Time 2026-04-22 11:02
Airport Langkawi International Airport (WMKL)

Arrival

Time 2026-04-22 11:15
Airport Sultan Abdul Halim Airport (WMKA)
Time Latitude Longitude Altitude Speed Heading
2026-04-22 10:43 6.34014 99.73201 33 ft 0 kts 303°
2026-04-22 10:54 6.34011 99.73206 32 ft 2 kts 303°
2026-04-22 10:54 6.34002 99.73219 32 ft 2 kts 303°
2026-04-22 10:54 6.33994 99.73231 31 ft 2 kts 303°
2026-04-22 10:55 6.33985 99.73244 31 ft 2 kts 326°
2026-04-22 10:55 6.33971 99.73247 31 ft 2 kts
2026-04-22 10:55 6.33962 99.73244 30 ft 1 kts 34°
2026-04-22 10:55 6.33957 99.73241 30 ft 0 kts 34°
2026-04-22 10:58 6.33982 99.73258 31 ft 9 kts 34°
2026-04-22 10:58 6.34045 99.73300 32 ft 11 kts 33°
2026-04-22 10:58 6.34106 99.73360 32 ft 14 kts 88°
2026-04-22 10:59 6.34104 99.73434 31 ft 10 kts 45°
2026-04-22 10:59 6.34164 99.73476 32 ft 11 kts 34°
2026-04-22 10:59 6.34241 99.73529 33 ft 14 kts 34°
2026-04-22 10:59 6.34324 99.73586 34 ft 14 kts 33°
2026-04-22 11:00 6.34410 99.73644 33 ft 14 kts 33°
2026-04-22 11:00 6.34450 99.73732 32 ft 15 kts 99°
2026-04-22 11:00 6.34401 99.73811 33 ft 7 kts 127°
2026-04-22 11:00 6.34363 99.73809 33 ft 7 kts 219°
2026-04-22 11:01 6.34214 99.73705 32 ft 58 kts 214°
2026-04-22 11:01 6.33691 99.73348 28 ft 122 kts 214°
2026-04-22 11:01 6.32837 99.72764 54 ft 170 kts 214°
2026-04-22 11:01 6.31835 99.72085 526 ft 176 kts 213°
2026-04-22 11:02 6.30798 99.71405 1145 ft 180 kts 210°
2026-04-22 11:02 6.29615 99.71104 1731 ft 182 kts 168°
2026-04-22 11:02 6.28566 99.71762 2038 ft 190 kts 121°
2026-04-22 11:02 6.28004 99.73007 2342 ft 203 kts 110°
2026-04-22 11:03 6.27453 99.74365 2637 ft 218 kts 112°
2026-04-22 11:03 6.26808 99.75839 2882 ft 239 kts 114°
2026-04-22 11:03 6.26095 99.77384 3305 ft 253 kts 114°
2026-04-22 11:03 6.25306 99.79041 3667 ft 271 kts 115°
2026-04-22 11:04 6.24474 99.80764 4239 ft 279 kts 115°
2026-04-22 11:04 6.23621 99.82513 4957 ft 282 kts 115°
2026-04-22 11:04 6.22754 99.84287 5663 ft 286 kts 115°
2026-04-22 11:04 6.21873 99.86086 6364 ft 290 kts 115°
2026-04-22 11:05 6.20986 99.87895 7255 ft 286 kts 115°
2026-04-22 11:05 6.20125 99.89652 8137 ft 282 kts 115°
2026-04-22 11:05 6.19272 99.91393 8645 ft 275 kts 116°
2026-04-22 11:05 6.18426 99.93118 8355 ft 281 kts 116°
2026-04-22 11:06 6.17556 99.94893 7716 ft 292 kts 116°
2026-04-22 11:06 6.16688 99.96771 7138 ft 299 kts 109°
2026-04-22 11:06 6.16259 99.98786 6761 ft 296 kts 92°
2026-04-22 11:06 6.16286 100.00853 6414 ft 293 kts 86°
2026-04-22 11:07 6.16427 100.02898 6030 ft 292 kts 85°
2026-04-22 11:07 6.16576 100.04909 5589 ft 294 kts 86°
2026-04-22 11:07 6.16547 100.06964 5181 ft 293 kts 102°
2026-04-22 11:07 6.15824 100.08845 4837 ft 288 kts 123°
2026-04-22 11:08 6.14700 100.10493 4524 ft 284 kts 128°
2026-04-22 11:08 6.13532 100.12075 4215 ft 281 kts 128°
2026-04-22 11:08 6.12392 100.13626 3912 ft 278 kts 127°
2026-04-22 11:08 6.11267 100.15191 3611 ft 275 kts 127°
2026-04-22 11:09 6.10161 100.16748 3469 ft 266 kts 127°
2026-04-22 11:09 6.09128 100.18213 3474 ft 251 kts 126°
2026-04-22 11:09 6.08211 100.19697 3279 ft 246 kts 118°
2026-04-22 11:09 6.07510 100.21229 3108 ft 240 kts 115°
2026-04-22 11:10 6.06884 100.22752 2938 ft 234 kts 114°
2026-04-22 11:10 6.06275 100.24247 2765 ft 227 kts 114°
2026-04-22 11:10 6.05686 100.25693 2560 ft 222 kts 114°
2026-04-22 11:10 6.05387 100.27184 2330 ft 217 kts 78°
2026-04-22 11:11 6.06032 100.28463 2227 ft 201 kts 40°
2026-04-22 11:11 6.07093 100.29296 2212 ft 189 kts 33°
2026-04-22 11:11 6.08148 100.30064 2118 ft 187 kts 35°
2026-04-22 11:11 6.09173 100.30881 1919 ft 188 kts 39°
2026-04-22 11:12 6.10152 100.31741 1897 ft 187 kts 40°
2026-04-22 11:12 6.11103 100.32610 1822 ft 181 kts 42°
2026-04-22 11:12 6.12001 100.33443 1630 ft 171 kts 40°
2026-04-22 11:12 6.12860 100.34233 1399 ft 165 kts 41°
2026-04-22 11:13 6.13678 100.34982 1167 ft 156 kts 41°
2026-04-22 11:13 6.14474 100.35712 969 ft 155 kts 41°
2026-04-22 11:13 6.15265 100.36437 773 ft 154 kts 41°
2026-04-22 11:13 6.16050 100.37157 567 ft 153 kts 41°
2026-04-22 11:14 6.16845 100.37887 369 ft 153 kts 40°
2026-04-22 11:14 6.17622 100.38598 160 ft 151 kts 40°
2026-04-22 11:14 6.18389 100.39300 21 ft 142 kts 42°
2026-04-22 11:14 6.18939 100.39805 26 ft 64 kts 42°
2026-04-22 11:15 6.19154 100.40002 25 ft 23 kts 42°
2026-04-22 11:15 6.19247 100.40077 25 ft 3 kts 85°
2026-04-22 11:15 6.19217 100.40056 25 ft 7 kts 221°
2026-04-22 11:15 6.19175 100.40018 25 ft 9 kts 221°